This is the latest recevied weather packets stored in our database for station/object E24BD-10. If no packets are shown the sender has not sent any weather packets the latest 10 day(s).
| Time | Temp. | Humidity | Pressure | Rain* | Wind** | Luminosity | Snow |
|---|---|---|---|---|---|---|---|
| 1777667101 | 34.44° C | 57% | 997 hPa | - | - | 0 W/m² | - |
| 1777666176 | 33.89° C | 58% | 997 hPa | - | - | 0 W/m² | - |
| 1777665251 | 33.33° C | 60% | 997 hPa | - | - | 0 W/m² | - |
| 1777664336 | 34.44° C | 57% | 997 hPa | - | - | 0 W/m² | - |
| 1777663402 | 33.89° C | 60% | 997 hPa | - | - | 0 W/m² | - |
| 1777662478 | 33.89° C | 59% | 997 hPa | - | - | 0 W/m² | - |
| 1777661553 | 33.89° C | 59% | 998 hPa | - | - | 0 W/m² | - |
| 1777660629 | 33.89° C | 59% | 998 hPa | - | - | 0 W/m² | - |
| 1777659704 | 33.89° C | 59% | 998 hPa | - | - | 0 W/m² | - |
| 1777658780 | 33.89° C | 58% | 998 hPa | - | - | 0 W/m² | - |
| 1777657855 | 33.89° C | 58% | 999 hPa | - | - | 0 W/m² | - |
| 1777656931 | 33.89° C | 58% | 999 hPa | - | - | 0 W/m² | - |
| 1777656006 | 34.44° C | 58% | 999 hPa | - | - | 0 W/m² | - |
| 1777655082 | 34.44° C | 58% | 999 hPa | - | - | 0 W/m² | - |
| 1777654157 | 34.44° C | 58% | 999 hPa | - | - | 0 W/m² | - |
| 1777653233 | 34.44° C | 58% | 999 hPa | - | - | 0 W/m² | - |
| 1777652308 | 34.44° C | 57% | 999 hPa | - | - | 0 W/m² | - |
| 1777651384 | 34.44° C | 57% | 999 hPa | - | - | 0 W/m² | - |
| 1777650459 | 34.44° C | 57% | 999 hPa | - | - | 0 W/m² | - |
| 1777649537 | 34.44° C | 56% | 999 hPa | - | - | 0 W/m² | - |
| 1777648611 | 34.44° C | 56% | 999 hPa | - | - | 0 W/m² | - |
| 1777647686 | 35° C | 55% | 999 hPa | - | - | 0 W/m² | - |
| 1777646762 | 35° C | 55% | 999 hPa | - | - | 0 W/m² | - |
| 1777645837 | 35° C | 55% | 999 hPa | - | - | 0 W/m² | - |
| 1777644913 | 35° C | 54% | 998 hPa | - | - | 0 W/m² | - |
* Rain since midnight (hover to see other rain measurements)
** Current wind speed in m/s (hover to see current wind gust speed)